Location: Saratoga Springs
(43.0831°N, 73.7850°W)
Time: 11:54:41
(UTC-04:00)

Vanguard 1 Rocket - Pass Details

Date: 19 April 2024
Orbit: 651 x 4220 km, 34.3° (Epoch: 19 May)

Event Time Altitude Azimuth Distance (km) Brightness Sun altitude
Rises 20:37:49 0° 246° (WSW) 3,209 10.8 -10.1°
Reaches altitude 10° 20:39:56 10° 238° (WSW) 2,460 10.1 -10.4°
Maximum altitude 20:45:15 42° 168° (SSE) 1,580 8.3 -11.3°
Enters shadow 20:53:01 14° 105° (ESE) 3,728 9.9 -12.5°
